MINOTAUR 4 DEB, 52037

Orbit data source: Space-Track

MINOTAUR 4 DEB, 52037 is space debris in LEO originally from a launch on Wed, 15 Jul 2020 UTC launched from the Wallops Island (WLPIS). Debris objects in space refer to the collection of defunct objects orbiting the Earth. Examples of debris include non-operational satellites, rocket bodies, and fragments generated from explosions, collisions, or faulty payload assembly.

Loading next visibility...
Identifier
52037, 2020-046AB
Orbit
LEO
Country
Flag of USUS
Related business
Manufacturer
NGIS FSG
Mission
Spacecraft
Bus & Motor
Unknown
Mass
Unknown
Launch date (UTC)
2020-07-15 (5 years ago)
Launch vehicle
Unknown
Launch site
Wallops Island (WLPIS)
Object type
Payload
Rocket body
Debris
Shape & HBR
Unknown shape, 0.1 m
Radar Cross Section
Small (<0.1 m²)

Expand to show TLE details & history
Last TLE update: 10 hours ago

TLE from 10 hours ago
0 MINOTAUR 4 DEB
1 52037U 20046AB  25304.84508454  .00001487  00000-0  12743-3 0  9991
2 52037  53.9778 161.3380 0010544  88.6949 271.5258 15.03607246207517
Epoch: 2025-10-31T20:16Z
TLE epoch observation values (Epoch: 2025-10-31T20:16:55.304Z)
Latitude
-0.00005°
Longitude
176.72385°
Altitude
556.573 km
Speed
7.585 km/s
True Right ascension
10h 45m 21s
True Declination
0° 00' 00"
Sunlit
Object was in daylight at epoch
Visualization orbit readout
Latitude
Unknown
Longitude
Unknown
Altitude
Unknown
Speed
Unknown
Apparent Right ascension
Unknown
Apparent Declination
Unknown
Sunlit
N/A
Visualization observer readout
Local Sidereal Time
01:46:35
Azimuth
Unknown
Elevation
Unknown
Doppler factor
Unknown
Orbital elements
Apogee altitude
563.219 km
Perigee altitude
548.597 km
Semi-major axis
6,934.045 km
Eccentricity
0.00105
Inclination
53.9778°
RAAN
161.338°
Arg. of periapsis
88.6949°
True anomaly
271.40501°
Mean anomaly
271.5258°
Eccentric anomaly
271.46541°
Mean motion
3.75892 °/min
Orbital period
95.77 mins
BSTAR
0.00012743
Loading maneuver chart data...
Computing Atmospheric mass density...

Documentation

Showing up to 5 results
|